Flag for Spain Weather past 2 weeks in Sevilla, Spain

Now
50 °F

Passing clouds.


Feels Like: 45 °F
Forecast: 42 / 57 °F
Wind: 13 mph from West

Location: Sevilla / San Pablo

Current Time: Jan 31, 2015 at 9:14:44 PM

Latest Report: Jan 31, 2015 at 8:30 PM


Visibility: N/A

Pressure: 29.92 "Hg

Humidity: 67%

Dew point: 39 °F

Location of SevillaLocation

Historic Weather in Sevilla — Graph

°F

Sevilla temperature yesterday

Maximum temperature yesterday: 64 °F (at 3:30 PM)
Minimum temperature yesterday: 55 °F (at 3:30 AM)
Average temperature yesterday: 59 °F

Past Weeks' High & Low Weather Summary

 TemperatureHumidityPressure
High66 °F (Jan 27, 5:30 PM)100% (Jan 17, 3:30 AM)30.39 "Hg (Jan 17, 3:30 AM)
Low34 °F (Jan 20, 6:30 AM)27% (Jan 26, 3:00 PM)29.68 "Hg (Jan 19, 3:30 AM)
Average49 °F76%30.12 "Hg
* Reported Jan 16 8:00 PM — Jan 31 8:00 PM, Sevilla, Weather by CustomWeather, © 2014

Note: Actual official high and low records may vary slightly from our data, if they occured in-between our weather recording intervals... More about our weather records

Advertising

Sevilla weather history for previous 24 hours

 ConditionsComfort  
Time TempWeatherWind HumidityBarometerVisibility
8:00 PM
Jan 31
52 °FPassing clouds.14 mph62%29.89 "HgN/A
7:30 PM50 °FPassing clouds.8 mph71%29.89 "HgN/A
7:00 PM52 °FPassing clouds.10 mph72%29.86 "HgN/A
6:30 PM55 °FPassing clouds.14 mph55%29.86 "HgN/A
6:00 PM55 °FPassing clouds.17 mph55%29.83 "HgN/A
5:30 PM57 °FPassing clouds.20 mph51%29.80 "HgN/A
5:00 PM59 °FScattered showers. Passing clouds.21 mph48%29.80 "HgN/A
4:30 PM59 °FPassing clouds.21 mph48%29.80 "HgN/A
4:00 PM59 °FScattered clouds.22 mph48%29.80 "HgN/A
3:30 PM59 °FSprinkles. Scattered clouds.33 mph55%29.80 "HgN/A
3:00 PM61 °FScattered clouds.20 mph42%29.77 "HgN/A
2:30 PM61 °FScattered clouds.22 mph39%29.77 "HgN/A
2:00 PM59 °FScattered clouds.17 mph48%29.77 "HgN/A
1:30 PM61 °FScattered clouds.16 mph52%29.80 "HgN/A
1:00 PM61 °FPassing clouds.18 mph48%29.80 "HgN/A
12:30 PM59 °FPassing clouds.25 mph51%29.80 "HgN/A
12:00 PM59 °FScattered clouds.23 mph59%29.80 "HgN/A
11:30 AM57 °FPartly sunny.17 mph72%29.77 "HgN/A
11:00 AM61 °FScattered clouds.17 mph72%29.74 "HgN/A
10:30 AM59 °FScattered clouds.22 mph72%29.74 "HgN/A
10:00 AM57 °FBroken clouds.16 mph88%29.71 "HgN/A
9:30 AM57 °FScattered clouds.17 mph88%29.71 "HgN/A
9:00 AM57 °FPartly sunny.20 mph88%29.68 "HgN/A
8:30 AM57 °FOvercast.18 mph88%29.68 "HgN/A
8:00 AM59 °FOvercast.20 mph82%29.68 "HgN/A
7:30 AM57 °FOvercast.20 mph88%29.68 "HgN/A
7:00 AM59 °FDrizzle. Overcast.18 mph82%29.68 "HgN/A
6:30 AM59 °FOvercast.18 mph82%29.68 "HgN/A
6:00 AM59 °FOvercast.18 mph82%29.68 "HgN/A
5:30 AM57 °FOvercast.17 mph88%29.68 "HgN/A
5:00 AM59 °FOvercast.20 mph82%29.71 "HgN/A
4:00 AM57 °FOvercast.14 mph88%29.74 "HgN/A
3:30 AM57 °FOvercast.15 mph88%29.74 "HgN/A
1:00 AM59 °FOvercast.20 mph82%29.80 "HgN/A
12:30 AM59 °FOvercast.18 mph82%29.80 "HgN/A
12:00 AM59 °FOvercast.18 mph82%29.80 "HgN/A
11:30 PM
Jan 30
59 °FPassing clouds.20 mph82%29.80 "HgN/A
11:00 PM59 °FPassing clouds.18 mph82%29.83 "HgN/A
10:30 PM59 °FPassing clouds.21 mph82%29.83 "HgN/A
10:00 PM59 °FPassing clouds.18 mph82%29.83 "HgN/A
9:30 PM59 °FPassing clouds.17 mph82%29.83 "HgN/A
9:00 PM59 °FPassing clouds.21 mph82%29.83 "HgN/A
Weather by CustomWeather, © 2014

See weather overviewHow to use our weather pages